Location: Unspecified
(0.0000°N, 0.0000°E)
Time: 21:32:53
(UTC+00:00)

deb Kosmos-1275 - Pass Details

Date: 10 March 2026
Orbit: 928 x 975 km, 82.8° (Epoch: 10 April)

Event Time Altitude Azimuth Distance (km) Brightness Sun altitude
Rises 19:52:05 0° 213° (SSW) 3,575 ? -25.4°
Reaches altitude 10° 19:55:19 10° 230° (SW) 2,628 ? -26.2°
Maximum altitude 19:59:21 19° 273° (W) 2,057 ? -27.2°
Drops below altitude 10° 20:03:25 10° 316° (NW) 2,626 ? -28.2°
Sets 20:06:40 0° 334° (NNW) 3,571 ? -29.0°
